Flag for Turkmenistan Weather past 2 weeks in Ashgabat, Turkmenistan

Now
63 °F

Clear.


Feels Like: 63 °F
Forecast: 52 / 78 °F
Wind: 6 mph from South

Location: Ashgabat

Current Time: Apr 26, 2015 at 10:44:50 PM

Latest Report: Apr 26, 2015 at 10:00 PM


Visibility: N/A

Pressure: 30.27 "Hg

Humidity: 37%

Dew point: 36 °F

Location of AshgabatLocation

Historic Weather in Ashgabat — Graph

°F

Ashgabat temperature yesterday

Maximum temperature yesterday: 77 °F (at 1:00 PM)
Minimum temperature yesterday: 59 °F (at 11:00 PM)
Average temperature yesterday: 67 °F

Past Weeks' High & Low Weather Summary

 TemperatureHumidityPressure
High100 °F (Apr 22, 1:30 PM)94% (Apr 14, 4:00 AM)30.27 "Hg (Apr 14, 4:00 AM)
Low50 °F (Apr 14, 4:00 AM)6% (Apr 22, 1:30 PM)29.59 "Hg (Apr 22, 4:00 PM)
Average67 °F47%29.93 "Hg
* Reported Apr 11 10:00 PM — Apr 26 10:00 PM, Ashgabat, Weather by CustomWeather, © 2015

Note: Actual official high and low records may vary slightly from our data, if they occured in-between our weather recording intervals... More about our weather records

Advertising

Ashgabat weather history for previous 24 hours

 ConditionsComfort  
Time TempWeatherWind HumidityBarometerVisibility
10:00 PM
Sun, Apr 26
63 °FClear.6 mph37%30.27 "HgN/A
9:00 PM64 °FClear.6 mph32%30.24 "HgN/A
8:00 PM68 °FSunny.6 mph26%30.24 "HgN/A
7:00 PM72 °FPassing clouds.6 mph22%30.24 "HgN/A
6:00 PM73 °FPassing clouds.3 mph22%30.24 "HgN/A
5:00 PM73 °FPassing clouds.3 mph22%30.24 "HgN/A
4:00 PM73 °FScattered clouds.8 mph20%30.24 "HgN/A
3:00 PM73 °FScattered clouds.8 mph20%30.24 "HgN/A
2:00 PM72 °FScattered clouds.13 mph23%30.27 "HgN/A
1:00 PM72 °FScattered clouds.17 mph22%30.27 "HgN/A
12:00 PM70 °FScattered clouds.17 mph25%30.27 "HgN/A
11:00 AM68 °FScattered clouds.20 mph26%30.27 "HgN/A
10:00 AM64 °FScattered clouds.20 mph30%30.24 "HgN/A
9:00 AM63 °FBroken clouds.22 mph32%30.24 "HgN/A
8:00 AM59 °FMostly cloudy.20 mph36%30.21 "HgN/A
7:00 AM59 °FMostly cloudy.15 mph36%30.18 "HgN/A
6:00 AM59 °FPassing clouds.22 mph36%30.15 "HgN/A
5:30 AM59 °FPassing clouds.17 mph36%30.12 "HgN/A
5:00 AM59 °FPassing clouds.22 mph36%30.12 "HgN/A
4:30 AM59 °FPartly cloudy.22 mph34%30.12 "HgN/A
4:00 AM59 °FPartly cloudy.22 mph34%30.09 "HgN/A
3:00 AM59 °FPassing clouds.17 mph34%30.09 "HgN/A
2:00 AM59 °FDense fog.29 mph31%30.07 "Hg1 mi
1:30 AM57 °FPassing clouds.24 mph36%30.07 "HgN/A
1:00 AM59 °FPassing clouds.26 mph31%30.04 "HgN/A
12:30 AM59 °FPassing clouds.31 mph34%30.04 "Hg4 mi
12:00 AM57 °FPassing clouds.24 mph36%30.04 "HgN/A
11:30 PM
Sat, Apr 25
59 °FPassing clouds.22 mph34%30.07 "HgN/A
11:00 PM59 °FPassing clouds.20 mph34%30.04 "HgN/A
10:30 PM61 °FPassing clouds.29 mph29%29.98 "HgN/A
10:00 PM61 °FPassing clouds.29 mph29%30.04 "HgN/A
Weather by CustomWeather, © 2015

See weather overviewHow to use our weather pages